Location: Potomac
(46.8816°N, 113.5795°W)
Time: 23:07:54
(UTC+00:00)

UKube-1 - Pass Details

Date: 01 July 2022
Orbit: 608 x 615 km, 98.4° (Epoch: 16 August)

Event Time Altitude Azimuth Distance (km) Brightness Sun altitude
Rises 04:21:44 0° 32° (NNE) 2,895 ? -7.2°
Reaches altitude 10° 04:24:55 10° 57° (ENE) 1,981 ? -7.6°
Maximum altitude 04:27:14 14° 90° (E) 1,712 ? -7.8°
Drops below altitude 10° 04:29:32 10° 123° (ESE) 1,970 ? -8.1°
Enters shadow 04:29:39 10° 124° (SE) 1,992 ? -8.1°
